カタログに戻る

STARLINK-11192

運用中通信VLEO
NORAD 60308·PAYLOAD·🇺🇸 United States

打ち上げ Jul 28, 2024 から Vandenberg Space Force Base

Loading…

次のパス (今後24時間)

TLE

最新Source: CelesTrak SupGP

元期: Sep 14, 2026, 22:30 UTC

1 60308C 24133H   26257.93798611  .00024550  00000+0  20225-3 0  2572
2 60308  53.1570 293.1710 0001298  81.8683 125.1146 15.69694416    19

AllMySatでSTARLINK-11192をリアルタイム追跡

Download on the App Store